Regional Weather Roundup
Issued by NWS

Home | Current Version | Previous Version | Text Only | Print | Product List | Glossary Off
Versions: 1 2 3 4 5 6 7 8 9 10 11 12 13 14 15 16 17 18 19 20 21 22 23 24 25 26 27 28 29 30 31 32 33 34 35 36 37 38 39 40 41 42 43 44 45 46 47 48 49 50

000
ASUS44 KMEG 020510
RWRTN
TENNESSEE HOURLY STATE WEATHER ROUNDUP
NATIONAL WEATHER SERVICE MEMPHIS TN
1100 PM CST SUN MAR 01 2015

TNZ002-004-019-021-049-052-054-088>092-020600-
WEST TENNESSEE

CITY           SKY/WX    TMP DP  RH WIND       PRES   REMARKS
MEMPHIS INTL   CLOUDY    38  35  89 NE10      30.39S WCI  31
NWS MEMPHIS      N/A     37 N/A N/A MISG        N/A
JACKSON        MIX PCPN  36  34  92 N10       30.41R FOG     WCI  28
DYERSBURG      CLOUDY    34  21  60 NE7       30.44S WCI  28
UNION CITY     CLOUDY    30  30 100 N7        30.42R WCI  23
PARIS          CLOUDY    32  30  93 N9        30.40S WCI  24
LEXINGTON      CLOUDY    39  37  93 N7        30.36S WCI  34
SAVANNAH       CLOUDY    46  46 100 N8        30.35S
$$

TNZ008-025-027-028-033-062-065-066-020600-
NORTH MIDDLE TENNESSEE

CITY           SKY/WX    TMP DP  RH WIND       PRES   REMARKS
NASHVILLE      LGT RAIN  41  41 100 N7        30.36R FOG
CLARKSVILLE    LGT RAIN  34  33  96 N12       30.40R FOG     WCI  25
SMYRNA         LGT RAIN  42  42 100 N20       30.36R FOG
COOKEVILLE     CLOUDY    48  48 100 SW3       30.30S VSB 3/4
CROSSVILLE     CLOUDY    45  44  97 VRB5      30.28F FOG
$$

TNZ061-075-076-078-094-096-097-020600-
SOUTH MIDDLE TENNESSEE

CITY           SKY/WX    TMP DP  RH WIND       PRES   REMARKS
FAYETTEVILLE   CLOUDY    46  45  93 CALM        N/A
TULLAHOMA      CLOUDY    46  46 100 SW5       30.32S
WINCHESTER     CLOUDY    46  46 100 CALM      30.33S
MCMINNVILLE    CLOUDY    48  48 100 W6        30.31R
COLUMBIA       CLOUDY   N/A N/A N/A CALM      30.31F
SHELBYVILLE    CLOUDY    50  50 100 SW3       30.33S
$$

TNZ017-018-042-046-047-020600-
NORTHEAST TENNESSEE

CITY           SKY/WX    TMP DP  RH WIND       PRES   REMARKS
TRI CITIES     CLOUDY    42  41  96 CALM      30.28F FOG
ELIZABETHTON   CLOUDY    43  43 100 CALM      30.28F FOG
$$

TNZ012-013-036-069-073-074-020600-
CENTRAL EAST TENNESSEE

CITY           SKY/WX    TMP DP  RH WIND       PRES   REMARKS
KNOXVILLE      CLOUDY    45  44  97 W5        30.31F FOG
OAK RIDGE      LGT RAIN  45  43  93 SW5       30.32F FOG
GATLINBURG     CLOUDY    43  41  93 CALM      30.30S
MORRISTOWN     CLOUDY    43  43 100 SW5       30.30S VSB 1/4
$$

TNZ083-085-099-020600-
SOUTHEAST TENNESSEE

CITY           SKY/WX    TMP DP  RH WIND       PRES   REMARKS
CHATTANOOGA    CLOUDY    46  45  96 CALM      30.34F FOG
$$

SKY/WX REPORTED AS FAIR MEANS FEW OR NO CLOUDS BELOW
12 THOUSAND FEET.



USA.gov is the U.S. government's official web portal to all federal, state and local government web resources and services.